FLOCK 2K-30 (42872 NORAD) Tracking and Keplerian Element Data

This shows tracking and keplerian element data for the satellite.

Feedback or suggestion? Click here.




ElementValue
Catalog42872
NameFLOCK 2K-30
Epoch Orbit3281
Epoch Day45.63143303
Epoch Year2018
RAAN308.4451
Inclination96.9928
Eccentricity0.0010661
Argument of Perigee184.3676
Mean Anonmoly175.7478
Mean Motion15.35678626
Decay Rate6.931E-05
L11 42872U 17042AZ 18045.63143303 .00006931 00000-0 20160-3 0 9999
L22 42872 96.9928 308.4451 0010661 184.3676 175.7478 15.35678626 32814

Live tracking and technical data element details for FLOCK 2K-30 (NORAD 42872). FLOCK 2K-30 can be tracked NOW for your location showing map with azimuth and elevation plus other details from your city location.

Track the satellite on the map from your city or location and see movement details for azimuth, elevation, latitude, longitude, range, height, and movement on the map or in text.







IsCatalogInMostPopularTable: catalog: 42872, numindb: 79
Update: records affected: 1



GetName: 42872 FLOCK 2K-30

Hit Count: updated at: Sat, 21 Jul 2018 08:03:35 GMT